Weather History for Rock Hill, SC

Change the Weather History Date:

Saturday, January 11, 2014

  Actual Average Record
Temperature  
Mean Temperature 54 °F -  
Max Temperature 66 °F 48 °F 79 °F (1949)
Min Temperature 42 °F 30 °F 3 °F (1982)
Degree Days  
Heating Degree Days 11    
Growing Degree Days 4 (Base 50)    
Moisture  
Dew Point 51 °F    
Average Humidity 95    
Maximum Humidity 100    
Minimum Humidity 83    
Precipitation  
Precipitation 1.24 in - - ()
Sea Level Pressure  
Sea Level Pressure 29.81 in    
Wind  
Wind Speed 6 mph (SW)    
Max Wind Speed 28 mph    
Max Gust Speed 46 mph    
Visibility 5 miles    
Events Fog , Rain , Thunderstorm    
Averages and records for this station are not official NWS values.
T = Trace of Precipitation, MM = Missing Value Source: NWS Daily Summary

Daily Weather History Graph

Daily Weather History Graph

Search for Another Location

Airport:

Trip Planner

Search our weather history database for the weather conditions in past years. The results will help you decide how hot, cold, wet, or windy it might be!

Date:

Astronomy

Jan. 11, 2014 Rise Set
Actual Time 7:32 AM EST 5:32 PM EST
Civil Twilight 7:04 AM EST 5:59 PM EST
Nautical Twilight 6:33 AM EST 6:31 PM EST
Astronomical Twilight 6:03 AM EST 7:01 PM EST
Moon 2:13 PM EST (1/11) 3:38 AM EST (1/11)
Length of Visible Light 10h 55m
Length of Day
9h 59m
Waxing Gibbous, 83% of the Moon is Illuminated
Jan 11
Waxing Gibbous
Jan 15
Full
Jan 24
Last Quarter
Jan 30
New
Feb 6
First Quarter

Hourly Weather History & Observations

Time (EST) Temp. Windchill Dew Point Humidity Pressure Visibility Wind Dir Wind Speed Gust Speed Precip Events Conditions
12:54 AM 42.1 °F - 42.1 °F 100% 30.07 in 1.2 mi Calm Calm - 0.02 in Rain Light Rain
1:11 AM 42.1 °F - 42.1 °F 100% 30.04 in 2.5 mi Calm Calm - 0.01 in   Overcast
1:22 AM 42.1 °F - 42.1 °F 100% 30.04 in 1.5 mi Calm Calm - 0.01 in   Overcast
1:54 AM 42.1 °F 39.2 °F 42.1 °F 100% 30.01 in 2.0 mi East 4.6 mph - 0.03 in Rain Light Rain
2:08 AM 43.0 °F - 42.1 °F 97% 30.00 in 1.2 mi Calm Calm - 0.00 in   Overcast
2:25 AM 43.0 °F - 42.1 °F 97% 29.99 in 0.8 mi Calm Calm - 0.00 in   Mist
2:37 AM 43.0 °F - 42.1 °F 97% 29.99 in 0.5 mi Calm Calm - 0.00 in Fog Fog
2:54 AM 43.0 °F 40.3 °F 42.1 °F 97% 30.01 in 0.5 mi North 4.6 mph - 0.00 in Fog Fog
3:31 AM 43.0 °F 41.3 °F 42.1 °F 97% 29.96 in 0.8 mi Variable 3.5 mph - N/A   Mist
3:50 AM 42.8 °F - 42.8 °F 100% 29.95 in 0.5 mi Calm Calm - N/A Fog Fog
3:54 AM 43.0 °F - 43.0 °F 100% 29.97 in 0.5 mi Calm Calm - N/A Fog Fog
4:54 AM 43.0 °F - 43.0 °F 100% 29.94 in 0.2 mi Calm Calm - N/A Fog Fog
5:38 AM 44.1 °F 41.5 °F 43.0 °F 96% 29.91 in 0.2 mi NNW 4.6 mph - N/A Fog Fog
5:54 AM 44.1 °F - 43.0 °F 96% 29.91 in 0.2 mi Calm Calm - N/A Fog Fog
6:45 AM 45.0 °F 39.3 °F 43.0 °F 93% 29.88 in 0.2 mi SW 11.5 mph - 0.00 in Fog , Rain , Thunderstorm Light Rain
6:54 AM 46.0 °F 41.4 °F 46.0 °F 100% 29.91 in 0.5 mi NNW 9.2 mph 21.9 mph 0.00 in Fog , Thunderstorm Fog
7:02 AM 46.0 °F 40.6 °F 46.0 °F 100% 29.93 in 1.0 mi NW 11.5 mph - 0.00 in Rain , Thunderstorm Light Rain
7:14 AM 46.9 °F - 46.9 °F 100% 29.88 in 1.8 mi Calm Calm - 0.03 in Rain Light Rain
7:17 AM 46.0 °F 43.9 °F 46.0 °F 100% 29.89 in 2.5 mi SSE 4.6 mph - 0.03 in Rain Light Rain
7:38 AM 46.9 °F - 46.0 °F 97% 29.88 in 2.5 mi Calm Calm - 0.11 in Rain , Thunderstorm Heavy Thunderstorms and Rain
7:43 AM 46.9 °F - 46.0 °F 97% 29.89 in 1.8 mi Calm Calm - 0.14 in Rain , Thunderstorm Thunderstorms and Rain
7:54 AM 48.0 °F - 46.0 °F 93% 29.86 in 1.0 mi SE 5.8 mph - 0.27 in Rain , Thunderstorm Light Thunderstorms and Rain
7:59 AM 48.0 °F - 46.9 °F 96% 29.85 in 2.0 mi SE 4.6 mph - 0.00 in Rain , Thunderstorm Light Thunderstorms and Rain
8:07 AM 48.0 °F - 48.0 °F 100% 29.84 in 2.0 mi SE 4.6 mph - 0.01 in Rain , Thunderstorm Light Rain
8:11 AM 48.0 °F - 48.0 °F 100% 29.85 in 3.0 mi South 3.5 mph - 0.01 in Rain , Thunderstorm Light Rain
8:18 AM 48.9 °F - 48.9 °F 100% 29.85 in 6.0 mi SSE 3.5 mph - 0.01 in   Overcast
8:32 AM 48.9 °F - 48.0 °F 97% 29.84 in 2.5 mi SSE 4.6 mph - 0.01 in   Overcast
8:39 AM 48.9 °F - 48.9 °F 100% 29.84 in 4.0 mi SSE 4.6 mph - 0.01 in Rain Light Rain
8:50 AM 50.0 °F - 50.0 °F 100% 29.82 in 4.0 mi Variable 5.8 mph - 0.02 in Rain Rain
8:54 AM 51.1 °F - 50.0 °F 96% 29.82 in 3.0 mi SSE 6.9 mph - 0.02 in Rain Light Rain
9:45 AM 60.1 °F - 59.0 °F 96% 29.79 in 10.0 mi SSW 12.7 mph - 0.04 in   Mostly Cloudy
9:54 AM 62.1 °F - 61.0 °F 96% 29.77 in 10.0 mi South 13.8 mph 23.0 mph 0.04 in   Mostly Cloudy
10:54 AM 64.9 °F - 62.1 °F 90% 29.73 in 10.0 mi South 24.2 mph 34.5 mph N/A   Overcast
11:05 AM 66.0 °F - 62.1 °F 87% 29.73 in 10.0 mi SSW 25.3 mph 35.7 mph N/A   Overcast
11:15 AM 66.0 °F - 62.1 °F 87% 29.73 in 10.0 mi SSW 23.0 mph 36.8 mph N/A   Overcast
11:26 AM 64.0 °F - 60.1 °F 87% 29.79 in 0.8 mi West 27.6 mph 46.0 mph 0.11 in Rain Heavy Rain
11:28 AM 62.1 °F - 57.9 °F 86% 29.79 in 0.5 mi West 21.9 mph 46.0 mph 0.19 in Fog , Rain Heavy Rain
11:38 AM 57.9 °F - 55.9 °F 93% 29.78 in 0.5 mi WSW 13.8 mph 29.9 mph 0.38 in Fog , Rain Heavy Rain
11:44 AM 57.9 °F - 55.9 °F 93% 29.79 in 1.0 mi WSW 17.3 mph 23.0 mph 0.42 in Rain Heavy Rain
11:54 AM 57.9 °F - 55.9 °F 93% 29.79 in 1.8 mi SW 15.0 mph - 0.46 in Rain Rain
11:56 AM 57.9 °F - 55.9 °F 93% 29.78 in 2.0 mi SW 13.8 mph 20.7 mph 0.00 in Rain Light Rain
12:04 PM 57.9 °F - 57.0 °F 97% 29.78 in 2.0 mi WSW 12.7 mph 20.7 mph 0.03 in Rain Heavy Rain
12:26 PM 57.9 °F - 55.9 °F 93% 29.78 in 2.5 mi SW 10.4 mph - 0.08 in Rain Rain
12:38 PM 57.9 °F - 57.0 °F 97% 29.76 in 5.0 mi SW 10.4 mph - 0.09 in Rain Light Rain
12:46 PM 57.9 °F - 57.0 °F 97% 29.76 in 5.0 mi SW 9.2 mph - 0.10 in Rain Light Rain
12:54 PM 57.9 °F - 57.0 °F 97% 29.76 in 3.0 mi SW 10.4 mph - 0.12 in Rain Rain
1:50 PM 57.2 °F - 55.4 °F 94% 29.76 in 2.5 mi WSW 10.4 mph - 0.12 in Rain Rain
1:54 PM 57.9 °F - 55.9 °F 93% 29.76 in 3.0 mi WSW 10.4 mph - 0.13 in Rain Rain
2:06 PM 57.0 °F - 55.9 °F 96% 29.75 in 2.0 mi SW 4.6 mph - 0.05 in Rain Heavy Rain
2:13 PM 57.0 °F - 55.9 °F 96% 29.74 in 1.8 mi SW 4.6 mph - 0.07 in Rain Rain
2:20 PM 57.0 °F - 55.9 °F 96% 29.74 in 3.0 mi SSW 5.8 mph - 0.08 in Rain Light Rain
2:54 PM 57.0 °F - 55.9 °F 96% 29.68 in 5.0 mi SSE 6.9 mph - 0.13 in Rain Light Rain
3:21 PM 57.0 °F - 55.9 °F 96% 29.65 in 9.0 mi SSW 6.9 mph - 0.02 in Rain Light Rain
3:54 PM 57.0 °F - 54.0 °F 89% 29.66 in 10.0 mi SSW 11.5 mph - 0.02 in   Clear
4:47 PM 55.9 °F - 54.0 °F 93% 29.67 in 10.0 mi SSW 10.4 mph - N/A   Mostly Cloudy
4:49 PM 55.4 °F - 53.6 °F 94% 29.67 in 10.0 mi SSW 11.5 mph - N/A   Scattered Clouds
4:54 PM 55.9 °F - 54.0 °F 93% 29.67 in 10.0 mi SSW 10.4 mph - N/A   Mostly Cloudy
5:24 PM 55.9 °F - 54.0 °F 93% 29.66 in 10.0 mi SSW 11.5 mph - N/A   Scattered Clouds
5:32 PM 55.9 °F - 54.0 °F 93% 29.66 in 10.0 mi SW 9.2 mph - N/A   Mostly Cloudy
5:49 PM 55.4 °F - 53.6 °F 94% 29.66 in 10.0 mi SSW 8.1 mph - N/A   Scattered Clouds
5:54 PM 55.0 °F - 54.0 °F 96% 29.66 in 10.0 mi SSW 8.1 mph - N/A   Mostly Cloudy
6:05 PM 55.0 °F - 54.0 °F 96% 29.66 in 10.0 mi SSW 6.9 mph - N/A   Mostly Cloudy
6:54 PM 55.0 °F - 54.0 °F 96% 29.67 in 10.0 mi SW 11.5 mph - N/A   Mostly Cloudy
7:54 PM 55.0 °F - 53.1 °F 93% 29.68 in 10.0 mi SSW 11.5 mph - N/A   Mostly Cloudy
8:02 PM 55.0 °F - 53.1 °F 93% 29.68 in 10.0 mi SW 10.4 mph - N/A   Scattered Clouds
8:12 PM 55.0 °F - 53.1 °F 93% 29.69 in 10.0 mi SW 12.7 mph - N/A   Mostly Cloudy
8:54 PM 55.0 °F - 53.1 °F 93% 29.70 in 10.0 mi WSW 10.4 mph 19.6 mph N/A   Mostly Cloudy
9:06 PM 55.0 °F - 52.0 °F 89% 29.70 in 10.0 mi WSW 12.7 mph - N/A   Partly Cloudy
9:54 PM 55.0 °F - 51.1 °F 86% 29.70 in 10.0 mi WSW 12.7 mph 18.4 mph N/A   Clear
10:54 PM 52.0 °F - 46.9 °F 83% 29.74 in 10.0 mi WSW 8.1 mph - N/A   Partly Cloudy
11:54 PM 50.0 °F - 45.0 °F 83% 29.77 in 10.0 mi West 8.1 mph - N/A   Clear